C/2014 S1 ( PanSTARRS )

Japanese version
Home page
Updated on November 3, 2015

---------------------------------------------------------------------

* Profile

Discovery Date September 19, 2014
Magnitude 21.3 mag
Discoverer Pan-STARRS 1 telescope (Haleakala)

* Pictures

* Orbital Elements

Epoch 2013 Nov. 4.0 TT = JDT 2456600.5
T 2013 Oct. 29.71212 TT                                 MPCW
q   8.1369423            (2000.0)            P               Q
z  -0.0000113      Peri.  288.79930     +0.38676952     +0.91606843
 +/-0.0000120      Node   352.67422     +0.75441381     -0.38039468
e   1.0000923      Incl.  123.79789     -0.53034813     +0.12695877
From 42 observations 2014 Sept. 19-2015 Sept. 13, mean residual 0".5.

* Magnitudes Graph

        m1 = 6.0 + 5 log d + 10.0 log r

---------------------------------------------------------------------

The orbital elements are published on M.P.E.C. 2015-S97.
The magnitudes graphs are made with Comet for Windows.

---------------------------------------------------------------------

Copyright(C) Seiichi Yoshida (comet@aerith.net). All rights reserved.